This is the latest recevied weather packets stored in our database for station/object OE-11331. If no packets are shown the sender has not sent any weather packets the latest 10 day(s).
| Time | Temp. | Humidity | Pressure | Rain* | Wind** | Luminosity | Snow |
|---|---|---|---|---|---|---|---|
| 1787936133 | 28.33° C | 63% | 1009 hPa | 0 mm | - | 65 W/m² | - |
| 1787935307 | 29.44° C | 56% | 1008.7 hPa | 0 mm | - | 76 W/m² | - |
| 1787934934 | 30° C | 56% | 1008.8 hPa | 0 mm | - | 87 W/m² | - |
| 1787934334 | 30° C | 56% | 1008.6 hPa | 0 mm | - | 119 W/m² | - |
| 1787933507 | 30° C | 55% | 1008.6 hPa | 0 mm | - | 119 W/m² | - |
| 1787933134 | 30.56° C | 55% | 1009 hPa | 0 mm | - | 206 W/m² | - |
| 1787932534 | 31.11° C | 51% | 1008.9 hPa | 0 mm | - | 292 W/m² | - |
| 1787931707 | 31.11° C | 50% | 1009 hPa | 0 mm | - | 314 W/m² | - |
| 1787931334 | 31.11° C | 50% | 1009.1 hPa | 0 mm | - | 336 W/m² | - |
| 1787930734 | 31.11° C | 52% | 1009.2 hPa | 0 mm | - | 357 W/m² | - |
| 1787929907 | 31.11° C | 49% | 1009.3 hPa | 0 mm | - | 379 W/m² | - |
| 1787929533 | 31.11° C | 51% | 1009.5 hPa | 0 mm | - | 411 W/m² | - |
| 1787928933 | 30.56° C | 50% | 1009.8 hPa | 0 mm | - | 465 W/m² | - |
| 1787928107 | 30.56° C | 50% | 1009.8 hPa | 0 mm | - | 487 W/m² | - |
| 1787927733 | 30.56° C | 51% | 1009.8 hPa | 0 mm | - | 498 W/m² | - |
| 1787927133 | 30.56° C | 52% | 1009.9 hPa | 0 mm | - | 584 W/m² | - |
| 1787926307 | 30° C | 50% | 1010.4 hPa | 0 mm | - | 552 W/m² | - |
| 1787925934 | 30° C | 51% | 1010.5 hPa | 0 mm | - | 639 W/m² | - |
| 1787925334 | 29.44° C | 54% | 1010.7 hPa | 0 mm | - | 476 W/m² | - |
| 1787924507 | 29.44° C | 54% | 1010.9 hPa | 0 mm | - | 476 W/m² | - |
| 1787924134 | 29.44° C | 55% | 1010.9 hPa | 0 mm | - | 509 W/m² | - |
| 1787923534 | 29.44° C | 55% | 1010.9 hPa | 0 mm | - | 455 W/m² | - |
| 1787922705 | 28.89° C | 54% | 1011.1 hPa | 0 mm | - | 357 W/m² | - |
| 1787922333 | 28.89° C | 56% | 1011.3 hPa | 0 mm | - | 336 W/m² | - |
| 1787921734 | 28.33° C | 55% | 1011.3 hPa | 0 mm | - | 346 W/m² | - |
* Rain latest hour (hover to see other rain measurements)
** Current wind speed in m/s (hover to see current wind gust speed)